Regional Weather Roundup
Issued by NWS Charleston, WV

Home | Current Version | Previous Version | Graphics & Text | Print | Product List | Glossary On
Versions: 1 2 3 4 5 6 7 8 9 10 11 12 13 14 15 16 17 18 19 20 21 22 23 24 25 26 27 28 29 30 31 32 33 34 35 36 37 38 39 40 41 42 43 44 45 46 47 48 49 50
000
ASUS41 KRLX 131010
RWRRLX
West Virginia Regional Weather Roundup
National Weather Service Charleston WV
500 AM EST SAT FEB 13 2016

Note: "fair" indicates few or no clouds below 12,000 feet with no
significant weather and/or obstructions to visibility.

WVZ003-131100-
Northern Panhandle of West Virginia

CITY           SKY/WX    TMP DP  RH WIND       PRES   REMARKS
WHEELING         N/A      9  -5  53 NW17G26   30.21R WCI  -9
$$

WVZ009-131100-
Northwest West Virginia

CITY           SKY/WX    TMP DP  RH WIND       PRES   REMARKS
PARKERSBURG      N/A     13   2  61 W9        30.32R WCI   1
$$

WVZ006-131100-
Western West Virginia

CITY           SKY/WX    TMP DP  RH WIND       PRES   REMARKS
HUNTINGTON     MOCLDY    17   3  54 NW6       30.35R WCI   9
$$

WVZ015-131100-
West Central West Virginia

CITY           SKY/WX    TMP DP  RH WIND       PRES   REMARKS
CHARLESTON       N/A     16   3  56 NW13      30.31R WCI   2
$$

WVZ022-031-131100-
North Central West Virginia

CITY           SKY/WX    TMP DP  RH WIND       PRES   REMARKS
CLARKSBURG     LGT SNOW  13   7  77 W10       30.20R WCI   0
MORGANTOWN     CLOUDY    13   3  64 NW8G20    30.17R WCI   2
$$

WVZ025-035-042-045-131100-
Southern West Virginia

CITY           SKY/WX    TMP DP  RH WIND       PRES   REMARKS
BECKLEY        LGT SNOW  11   5  77 NW12      30.14R WCI  -3
LOGAN          LGT SNOW  14  10  85 NW6G14    30.25R WCI   5
BLUEFIELD      LGT SNOW  11   5  77 NW18      30.09R WCI  -7
LEWISBURG      FLURRIES  14   6  69 N13       30.10R WCI   0
$$

WVZ047-131100-
Northern Mountains of West Virginia

CITY           SKY/WX    TMP DP  RH WIND       PRES   REMARKS
ELKINS         FLURRIES  10   0  63 NW18G31   30.11R WCI  -8
$$

WVZ052-131100-
Eastern Panhandle of West Virginia

CITY           SKY/WX    TMP DP  RH WIND       PRES   REMARKS
MARTINSBURG    CLOUDY    19   5  54 W18G31    30.07R WCI   4
PETERSBURG     CLOUDY    17   2  51 NW5G26    30.14R WCI  10
$$



USA.gov is the U.S. government's official web portal to all federal, state and local government web resources and services.